This is the latest recevied weather packets stored in our database for station/object KG4GJX. If no packets are shown the sender has not sent any weather packets the latest 10 day(s).
| Time | Temp. | Humidity | Pressure | Rain* | Wind** | Luminosity | Snow |
|---|---|---|---|---|---|---|---|
| 1788545862 | 36.11° C | 49% | 1017.6 hPa | 0 mm | - | - | - |
| 1788545199 | 35.56° C | 53% | 1017.6 hPa | 0 mm | - | - | - |
| 1788544536 | 35° C | 53% | 1017.9 hPa | 0 mm | - | - | - |
| 1788543874 | 35.56° C | 53% | 1017.9 hPa | 0 mm | - | - | - |
| 1788543211 | 35.56° C | 54% | 1017.9 hPa | 0 mm | - | - | - |
| 1788542549 | 36.11° C | 53% | 1018.2 hPa | 0 mm | - | - | - |
| 1788541887 | 35.56° C | 55% | 1018.2 hPa | 0 mm | - | - | - |
| 1788541224 | 35° C | 57% | 1018.2 hPa | 0 mm | - | - | - |
| 1788540562 | 35° C | 57% | 1018.6 hPa | 0 mm | - | - | - |
| 1788539899 | 34.44° C | 58% | 1018.2 hPa | 0 mm | - | - | - |
| 1788539237 | 33.89° C | 61% | 1018.6 hPa | 0 mm | - | - | - |
| 1788538574 | 33.89° C | 61% | 1018.9 hPa | 0 mm | - | - | - |
| 1788537912 | 33.33° C | 61% | 1018.9 hPa | 0 mm | - | - | - |
| 1788537249 | 33.33° C | 60% | 1018.9 hPa | 0 mm | - | - | - |
| 1788536587 | 33.33° C | 63% | 1018.9 hPa | 0 mm | - | - | - |
| 1788535925 | 32.78° C | 65% | 1018.9 hPa | 0 mm | - | - | - |
| 1788535262 | 32.22° C | 65% | 1018.9 hPa | 0 mm | - | - | - |
| 1788534599 | 31.67° C | 69% | 1018.9 hPa | 0 mm | - | - | - |
| 1788533937 | 31.11° C | 70% | 1018.9 hPa | 0 mm | - | - | - |
| 1788533275 | 30.56° C | 69% | 1018.6 hPa | 0 mm | - | - | - |
| 1788532612 | 30.56° C | 70% | 1018.6 hPa | 0 mm | - | - | - |
| 1788531950 | 30° C | 73% | 1018.6 hPa | 0 mm | - | - | - |
| 1788531287 | 29.44° C | 82% | 1018.2 hPa | 0 mm | - | - | - |
| 1788530644 | 28.89° C | 89% | 1018.2 hPa | 0 mm | - | - | - |
| 1788529961 | 27.78° C | 95% | 1018.2 hPa | 0 mm | - | - | - |
* Rain latest hour (hover to see other rain measurements)
** Current wind speed in m/s (hover to see current wind gust speed)